PEGASUS DEB, 39314

Orbit data source: Space-Track

PEGASUS DEB, 39314 is space debris in LEO originally from a launch on Thu, 19 May 1994 UTC launched from the Air Force Western Test Range (AFWTR). Debris objects in space refer to the collection of defunct objects orbiting the Earth. Examples of debris include non-operational satellites, rocket bodies, and fragments generated from explosions, collisions, or faulty payload assembly.

Loading next visibility...
Identifier
39314, 1994-029AEZ
Orbit
LEO
Country
Flag of USUS
Related business
Manufacturer
Unknown
Mission
Spacecraft
Bus & Motor
Unknown
Mass
Unknown
Launch date (UTC)
1994-05-19 (32 years ago)
Launch vehicle
Unknown
Launch site
Air Force Western Test Range (AFWTR)
Object type
Payload
Rocket body
Debris
Shape & HBR
Unknown shape, 0.1 m
Radar Cross Section
Small (<0.1 m²)

Expand to show TLE details & history
Last TLE update: 2 weeks ago

TLE from 2 weeks ago
0 PEGASUS DEB
1 39314U 94029AEZ 26220.22356566  .00002739  00000-0  34641-3 0  9993
2 39314  81.6544 184.4122 0154666 332.0477  27.2482 14.73400662668385
Epoch: 2026-08-08T05:21Z
TLE epoch observation values (Epoch: 2026-08-08T05:21:56.073Z)
Latitude
0.00007°
Longitude
147.19058°
Altitude
556.931 km
Speed
7.635 km/s
True Right ascension
12h 17m 38s
True Declination
0° 00' 00"
Sunlit
Object was in daylight at epoch
Visualization orbit readout
Latitude
Unknown
Longitude
Unknown
Altitude
Unknown
Speed
Unknown
Apparent Right ascension
Unknown
Apparent Declination
Unknown
Sunlit
N/A
Visualization observer readout
Local Sidereal Time
15:06:46
Azimuth
Unknown
Elevation
Unknown
Doppler factor
Unknown
Orbital elements
Apogee altitude
755.961 km
Perigee altitude
538.642 km
Semi-major axis
7,025.439 km
Eccentricity
0.01547
Inclination
81.6544°
RAAN
184.4122°
Arg. of periapsis
332.0477°
True anomaly
28.07381°
Mean anomaly
27.2482°
Eccentric anomaly
27.65958°
Mean motion
3.68581 °/min
Orbital period
97.67 mins
BSTAR
0.00034641
Loading maneuver chart data...
Computing Atmospheric mass density...

Documentation

Showing up to 5 results
|